Tracking 27097 objects as of 29-Mar-2023
HD Live streaming from Space Station
objects crossing your sky now

ONEWEB-0675

Track ONEWEB-0675 now!
10-day predictions
ONEWEB-0675 is classified as:


NORAD ID: 55834
Int'l Code: 2023-029AQ
Perigee: 607.7 km
Apogee: 623.9 km
Inclination: 86.6 °
Period: 96.9 minutes
Semi major axis: 6986 km
RCS: Unknown
Launch date: March 9, 2023
Source: United Kingdom (UK)
Launch site: AIR FORCE EASTERN TEST RANGE (AFETR)
Your satellite tracking list
Your tracking list is empty




NASA's NSSDC Master Catalog

Two Line Element Set (TLE):
1 55834U 23029AQ  23087.91667824 -.00052431  00000-0 -59676-2 0  9996
2 55834  86.5503 190.9168 0011612 142.7456 240.3676 14.86567551  1308
Source of the keplerian elements: AFSPC